CPA161 VHHH-YSSY

Flight info

Callsign CPA161
Flight time N/A
Altitude 37000
Route DALOL1B/25L DALOL V652 SABNO/N0493F370 A583 AKOTA W3 IOO B472 ALDIN/N0489F390 B472 COT R590 AMN R340 GUTEV DCT RINLA DCT ENRES DCT NIVED DCT 2156S14155E/N0484F410 2453S14524E DCT SGE Y161 OVNOM H652 BOREE
Aircraft A359/H-SDE2E3GHIJ1J3J4J5LM1ORWXYZ/LB1D1

Departure

Time N/A
Airport Hong Kong International Airport (VHHH)

Arrival

Time 2026-04-23 23:52
Airport Sydney Kingsford Smith International Airport (YSSY)
Time Latitude Longitude Altitude Speed Heading
2026-04-23 20:23 -12.72228 133.75707 38991 ft 496 kts 158°
2026-04-23 20:23 -12.79342 133.79591 38993 ft 498 kts 158°
2026-04-23 20:24 -12.84524 133.82289 38992 ft 500 kts 162°
2026-04-23 20:24 -12.90835 133.85239 38990 ft 501 kts 161°
2026-04-23 20:25 -12.97120 133.88410 39001 ft 503 kts 159°
2026-04-23 20:25 -13.03273 133.91810 39007 ft 504 kts 157°
2026-04-23 20:26 -13.09426 133.95305 39007 ft 505 kts 158°
2026-04-23 20:26 -13.15541 133.98787 39012 ft 505 kts 157°
2026-04-23 20:27 -13.21691 134.02263 39005 ft 504 kts 158°
2026-04-23 20:27 -13.27960 134.05487 39004 ft 502 kts 161°
2026-04-23 20:28 -13.34224 134.08576 39011 ft 503 kts 159°
2026-04-23 20:28 -13.40402 134.12001 38994 ft 504 kts 156°
2026-04-23 20:29 -13.46103 134.16167 39019 ft 506 kts 148°
2026-04-23 20:29 -13.51654 134.20634 39043 ft 505 kts 152°
2026-04-23 20:30 -13.57796 134.23923 38997 ft 495 kts 163°
2026-04-23 20:30 -13.67299 134.28118 38984 ft 499 kts 159°
2026-04-23 20:31 -13.73333 134.31691 39013 ft 501 kts 156°
2026-04-23 20:31 -13.79268 134.35428 39011 ft 503 kts 155°
2026-04-23 20:32 -13.85199 134.39221 39014 ft 504 kts 155°
2026-04-23 20:32 -13.91219 134.42979 39011 ft 504 kts 159°
2026-04-23 20:33 -13.97380 134.46311 39010 ft 502 kts 159°
2026-04-23 20:33 -14.03257 134.50235 39020 ft 505 kts 150°
2026-04-23 20:34 -14.06044 134.52444 40377 ft 504 kts 149°
2026-04-23 20:34 -14.08940 134.54431 40209 ft 496 kts 155°
2026-04-23 20:34 -14.11952 134.56141 39965 ft 491 kts 158°
2026-04-23 20:34 -14.14986 134.57775 39699 ft 491 kts 158°
2026-04-23 20:35 -14.17976 134.59429 39469 ft 492 kts 156°
2026-04-23 20:35 -14.20969 134.61167 39210 ft 493 kts 155°
2026-04-23 20:35 -14.23929 134.62968 39016 ft 493 kts 154°
2026-04-23 20:35 -14.26863 134.64813 39001 ft 493 kts 154°
2026-04-23 20:36 -14.32693 134.68554 39004 ft 492 kts 154°
2026-04-23 20:36 -14.38471 134.72287 39003 ft 492 kts 153°
2026-04-23 20:37 -14.44281 134.76043 38998 ft 492 kts 153°
2026-04-23 20:37 -14.50104 134.79803 38998 ft 492 kts 153°
2026-04-23 20:38 -14.55872 134.83527 38996 ft 492 kts 153°
2026-04-23 20:38 -14.61685 134.87257 38998 ft 491 kts 153°
2026-04-23 20:39 -14.67350 134.91252 39002 ft 492 kts 149°
2026-04-23 20:39 -14.72821 134.95470 39000 ft 493 kts 148°
2026-04-23 20:40 -14.78267 134.99790 39069 ft 492 kts 148°
2026-04-23 20:40 -14.83701 135.04093 39125 ft 492 kts 148°
2026-04-23 20:41 -14.89173 135.08248 39244 ft 489 kts 150°
2026-04-23 20:41 -14.94694 135.12408 39177 ft 492 kts 148°
2026-04-23 20:42 -14.97363 135.14640 38994 ft 494 kts 143°
2026-04-23 20:42 -14.99731 135.17211 38987 ft 494 kts 134°
2026-04-23 20:42 -15.01810 135.20048 39093 ft 492 kts 137°
2026-04-23 20:42 -15.04313 135.22336 39063 ft 480 kts 150°
2026-04-23 20:43 -15.10030 135.25932 38988 ft 480 kts 155°
2026-04-23 20:43 -15.15704 135.29643 38999 ft 483 kts 151°
2026-04-23 20:44 -15.21150 135.33720 39000 ft 485 kts 148°
2026-04-23 20:44 -15.26494 135.37958 38998 ft 487 kts 148°
2026-04-23 20:45 -15.31901 135.42281 39002 ft 490 kts 148°
2026-04-23 20:45 -15.37312 135.46589 38999 ft 491 kts 148°
2026-04-23 20:46 -15.42710 135.50875 38997 ft 492 kts 148°
2026-04-23 20:46 -15.48152 135.55201 39003 ft 492 kts 148°
2026-04-23 20:47 -15.53552 135.59500 39001 ft 492 kts 148°
2026-04-23 20:47 -15.58987 135.63829 39001 ft 492 kts 148°
2026-04-23 20:48 -15.64425 135.68163 38999 ft 492 kts 148°
2026-04-23 20:48 -15.69831 135.72474 38999 ft 492 kts 148°
2026-04-23 20:49 -15.75278 135.76821 39000 ft 492 kts 148°
2026-04-23 20:49 -15.80684 135.81138 39003 ft 492 kts 148°
2026-04-23 20:50 -15.86123 135.85485 39002 ft 492 kts 148°
2026-04-23 20:50 -15.91555 135.89828 38999 ft 492 kts 148°
2026-04-23 20:51 -15.96957 135.94152 39000 ft 492 kts 148°
2026-04-23 20:51 -16.02386 135.98499 38999 ft 492 kts 148°
2026-04-23 20:52 -16.07780 136.02821 39001 ft 492 kts 148°
2026-04-23 20:52 -16.13223 136.07186 38999 ft 492 kts 148°
2026-04-23 20:53 -16.18627 136.11523 39004 ft 492 kts 148°
2026-04-23 20:53 -16.24017 136.15852 39001 ft 492 kts 148°
2026-04-23 20:54 -16.29455 136.20222 39001 ft 492 kts 148°
2026-04-23 20:54 -16.34846 136.24557 39002 ft 492 kts 148°
2026-04-23 20:55 -16.40267 136.28922 38999 ft 492 kts 148°
2026-04-23 20:55 -16.45691 136.33290 39002 ft 492 kts 148°
2026-04-23 20:56 -16.51120 136.37665 39003 ft 492 kts 148°
2026-04-23 20:56 -16.56503 136.42007 39000 ft 492 kts 148°
2026-04-23 20:57 -16.61931 136.46388 39003 ft 492 kts 148°
2026-04-23 20:57 -16.67316 136.50736 39001 ft 492 kts 148°
2026-04-23 20:58 -16.72732 136.55114 39003 ft 492 kts 148°
2026-04-23 20:58 -16.78163 136.59508 38997 ft 492 kts 148°
2026-04-23 20:59 -16.83541 136.63862 38998 ft 492 kts 148°
2026-04-23 20:59 -16.88964 136.68256 38999 ft 492 kts 148°
2026-04-23 21:00 -16.94390 136.72654 39001 ft 492 kts 148°
2026-04-23 21:00 -16.99789 136.77035 39003 ft 493 kts 148°
2026-04-23 21:01 -17.05208 136.81435 39001 ft 492 kts 148°
2026-04-23 21:01 -17.10617 136.85830 39001 ft 493 kts 148°
2026-04-23 21:02 -17.16007 136.90214 38998 ft 493 kts 148°
2026-04-23 21:02 -17.21432 136.94629 38998 ft 493 kts 148°
2026-04-23 21:03 -17.26823 136.99020 39002 ft 493 kts 148°
2026-04-23 21:03 -17.32244 137.03438 39000 ft 493 kts 148°
2026-04-23 21:04 -17.37634 137.07832 39000 ft 493 kts 148°
2026-04-23 21:04 -17.43062 137.12263 38998 ft 493 kts 148°
2026-04-23 21:05 -17.48458 137.16672 38998 ft 493 kts 148°
2026-04-23 21:05 -17.53884 137.21109 39003 ft 493 kts 147°
2026-04-23 21:06 -17.59274 137.25519 38996 ft 493 kts 147°
2026-04-23 21:06 -17.64696 137.29959 38996 ft 494 kts 148°
2026-04-23 21:07 -17.70087 137.34375 39001 ft 494 kts 147°
2026-04-23 21:07 -17.75514 137.38826 38999 ft 494 kts 147°
2026-04-23 21:08 -17.80920 137.43264 39003 ft 493 kts 147°
2026-04-23 21:08 -17.86311 137.47692 38998 ft 494 kts 147°
2026-04-23 21:09 -17.91731 137.52146 38999 ft 493 kts 147°
2026-04-23 21:09 -17.97117 137.56576 38998 ft 493 kts 147°
2026-04-23 21:10 -18.02528 137.61032 39002 ft 493 kts 147°
2026-04-23 21:10 -18.07899 137.65460 39003 ft 493 kts 147°
2026-04-23 21:11 -18.13312 137.69924 39004 ft 493 kts 147°
2026-04-23 21:11 -18.18683 137.74356 38996 ft 493 kts 147°
2026-04-23 21:12 -18.23175 137.78067 39000 ft 493 kts 147°
2026-04-23 21:12 -18.28575 137.82530 39001 ft 493 kts 147°
2026-04-23 21:13 -18.33971 137.86995 38996 ft 493 kts 147°
2026-04-23 21:13 -18.39338 137.91437 38999 ft 493 kts 147°
2026-04-23 21:14 -18.44736 137.95911 38998 ft 493 kts 147°
2026-04-23 21:14 -18.50137 138.00390 39003 ft 494 kts 147°
2026-04-23 21:15 -18.55453 138.04903 38980 ft 494 kts 142°
2026-04-23 21:15 -18.60310 138.10047 39003 ft 493 kts 140°
2026-04-23 21:16 -18.65080 138.15287 39005 ft 493 kts 139°
2026-04-23 21:16 -18.69780 138.20502 39003 ft 493 kts 139°
2026-04-23 21:17 -18.74514 138.25757 39001 ft 493 kts 139°
2026-04-23 21:17 -18.79250 138.31007 38999 ft 493 kts 139°
2026-04-23 21:18 -18.83963 138.36233 39003 ft 493 kts 139°
2026-04-23 21:18 -18.88693 138.41482 39002 ft 493 kts 139°
2026-04-23 21:19 -18.93399 138.46711 38998 ft 493 kts 139°
2026-04-23 21:19 -18.98136 138.51976 39003 ft 493 kts 139°
2026-04-23 21:20 -19.02840 138.57211 39000 ft 493 kts 139°
2026-04-23 21:20 -19.07580 138.62492 39002 ft 493 kts 139°
2026-04-23 21:21 -19.12280 138.67730 39001 ft 493 kts 139°
2026-04-23 21:21 -19.17018 138.73017 39001 ft 493 kts 139°
2026-04-23 21:22 -19.21708 138.78255 39000 ft 493 kts 139°
2026-04-23 21:22 -19.26408 138.83508 39002 ft 493 kts 139°
2026-04-23 21:23 -19.31144 138.88805 38999 ft 493 kts 139°
2026-04-23 21:23 -19.35858 138.94084 38996 ft 493 kts 139°
2026-04-23 21:24 -19.40551 138.99345 39000 ft 493 kts 139°
2026-04-23 21:24 -19.45277 139.04645 38997 ft 493 kts 139°
2026-04-23 21:25 -19.49964 139.09908 38996 ft 493 kts 139°
2026-04-23 21:25 -19.54686 139.15216 38999 ft 494 kts 139°
2026-04-23 21:26 -19.59410 139.20530 38999 ft 494 kts 139°
2026-04-23 21:26 -19.64099 139.25809 38999 ft 494 kts 139°
2026-04-23 21:27 -19.68822 139.31131 38996 ft 494 kts 139°
2026-04-23 21:27 -19.73533 139.36444 39000 ft 493 kts 139°
2026-04-23 21:28 -19.78218 139.41734 39002 ft 494 kts 139°
2026-04-23 21:28 -19.82923 139.47050 39001 ft 494 kts 139°
2026-04-23 21:29 -19.87633 139.52377 39004 ft 494 kts 139°
2026-04-23 21:29 -19.92317 139.57679 38999 ft 494 kts 139°
2026-04-23 21:30 -19.97025 139.63015 39008 ft 493 kts 139°
2026-04-23 21:30 -20.01730 139.68352 38996 ft 493 kts 139°
2026-04-23 21:31 -20.06408 139.73664 38996 ft 494 kts 139°
2026-04-23 21:31 -20.11078 139.78969 39000 ft 493 kts 139°
2026-04-23 21:32 -20.15780 139.84317 39002 ft 493 kts 139°
2026-04-23 21:32 -20.20452 139.89637 39001 ft 493 kts 139°
2026-04-23 21:33 -20.25152 139.94992 39001 ft 493 kts 139°
2026-04-23 21:33 -20.29814 140.00310 39002 ft 493 kts 139°
2026-04-23 21:34 -20.34509 140.05671 39000 ft 493 kts 139°
2026-04-23 21:34 -20.39195 140.11027 38999 ft 493 kts 139°
2026-04-23 21:35 -20.43852 140.16355 39001 ft 493 kts 139°
2026-04-23 21:35 -20.48537 140.21719 38996 ft 493 kts 139°
2026-04-23 21:36 -20.55522 140.29725 38998 ft 493 kts 139°
2026-04-23 21:37 -20.60210 140.35108 39001 ft 493 kts 139°
2026-04-23 21:37 -20.64853 140.40441 38996 ft 493 kts 139°
2026-04-23 21:38 -20.69525 140.45813 39003 ft 493 kts 138°
2026-04-23 21:38 -20.74200 140.51194 39003 ft 493 kts 138°
2026-04-23 21:39 -20.78842 140.56545 39002 ft 493 kts 138°
2026-04-23 21:39 -20.83511 140.61930 39001 ft 493 kts 138°
2026-04-23 21:40 -20.88181 140.67320 38996 ft 493 kts 138°
2026-04-23 21:40 -20.92848 140.72714 39002 ft 493 kts 138°
2026-04-23 21:41 -20.97489 140.78082 39002 ft 493 kts 138°
2026-04-23 21:41 -21.02147 140.83475 38996 ft 493 kts 138°
2026-04-23 21:42 -21.06811 140.88882 39001 ft 493 kts 138°
2026-04-23 21:42 -21.11442 140.94255 39003 ft 493 kts 138°
2026-04-23 21:43 -21.16105 140.99670 39004 ft 493 kts 138°
2026-04-23 21:43 -21.20727 141.05044 39000 ft 493 kts 138°
2026-04-23 21:44 -21.25381 141.10460 39000 ft 493 kts 138°
2026-04-23 21:44 -21.30036 141.15883 39004 ft 493 kts 138°
2026-04-23 21:45 -21.34661 141.21275 39000 ft 493 kts 138°
2026-04-23 21:45 -21.39313 141.26704 39003 ft 493 kts 138°
2026-04-23 21:46 -21.43936 141.32105 39002 ft 493 kts 138°
2026-04-23 21:46 -21.48554 141.37506 38996 ft 493 kts 138°
2026-04-23 21:47 -21.53193 141.42937 38996 ft 493 kts 138°
2026-04-23 21:47 -21.57840 141.48383 38996 ft 493 kts 138°
2026-04-23 21:48 -21.62457 141.53799 39005 ft 493 kts 138°
2026-04-23 21:48 -21.67102 141.59254 39003 ft 493 kts 138°
2026-04-23 21:49 -21.71746 141.64712 39002 ft 493 kts 138°
2026-04-23 21:49 -21.76378 141.70163 39000 ft 493 kts 138°
2026-04-23 21:50 -21.80994 141.75602 39001 ft 493 kts 138°
2026-04-23 21:50 -21.85606 141.81041 39002 ft 494 kts 138°
2026-04-23 21:51 -21.90245 141.86517 39003 ft 494 kts 138°
2026-04-23 21:51 -21.94878 141.91991 39002 ft 493 kts 138°
2026-04-23 21:52 -21.99546 141.97364 38999 ft 493 kts 139°
2026-04-23 21:52 -22.04285 142.02732 39000 ft 493 kts 139°
2026-04-23 21:53 -22.09014 142.08108 39000 ft 493 kts 139°
2026-04-23 21:53 -22.13693 142.13457 39005 ft 493 kts 139°
2026-04-23 21:54 -22.18410 142.18863 39003 ft 493 kts 139°
2026-04-23 21:54 -22.23092 142.24237 38996 ft 493 kts 139°
2026-04-23 21:55 -22.27803 142.29649 39005 ft 493 kts 139°
2026-04-23 21:55 -22.32502 142.35052 39000 ft 493 kts 139°
2026-04-23 21:56 -22.37166 142.40421 38999 ft 493 kts 139°
2026-04-23 21:56 -22.41851 142.45818 39002 ft 493 kts 139°
2026-04-23 21:57 -22.46555 142.51244 39000 ft 493 kts 139°
2026-04-23 21:57 -22.51215 142.56625 39000 ft 493 kts 139°
2026-04-23 21:58 -22.55906 142.62047 39001 ft 493 kts 139°
2026-04-23 21:58 -22.59834 142.66592 39000 ft 493 kts 139°
2026-04-23 21:59 -22.64500 142.71995 38996 ft 493 kts 139°
2026-04-23 21:59 -22.69950 142.78315 39004 ft 493 kts 139°
2026-04-23 22:00 -22.76194 142.85563 39003 ft 493 kts 139°
2026-04-23 22:00 -22.80882 142.91013 39002 ft 493 kts 139°
2026-04-23 22:01 -22.85563 142.96460 39002 ft 493 kts 139°
2026-04-23 22:01 -22.90248 143.01918 38996 ft 493 kts 139°
2026-04-23 22:02 -22.94907 143.07352 39003 ft 494 kts 138°
2026-04-23 22:02 -22.99600 143.12832 38997 ft 494 kts 138°
2026-04-23 22:03 -23.04249 143.18264 39001 ft 493 kts 138°
2026-04-23 22:03 -23.08929 143.23740 39000 ft 493 kts 138°
2026-04-23 22:04 -23.13585 143.29193 39003 ft 494 kts 138°
2026-04-23 22:04 -23.18258 143.34673 39002 ft 493 kts 138°
2026-04-23 22:05 -23.22902 143.40126 38999 ft 493 kts 138°
2026-04-23 22:05 -23.27569 143.45610 38998 ft 493 kts 138°
2026-04-23 22:06 -23.32237 143.51103 39001 ft 493 kts 138°
2026-04-23 22:06 -23.36872 143.56564 39003 ft 493 kts 138°
2026-04-23 22:07 -23.41532 143.62059 39000 ft 493 kts 138°
2026-04-23 22:07 -23.46188 143.67555 39002 ft 493 kts 138°
2026-04-23 22:08 -23.50816 143.73025 38999 ft 493 kts 138°
2026-04-23 22:08 -23.55476 143.78537 39005 ft 493 kts 138°
2026-04-23 22:09 -23.60119 143.84036 39004 ft 493 kts 138°
2026-04-23 22:09 -23.64761 143.89541 38995 ft 493 kts 138°
2026-04-23 22:10 -23.69377 143.95022 38999 ft 493 kts 138°
2026-04-23 22:10 -23.74028 144.00551 39006 ft 493 kts 138°
2026-04-23 22:11 -23.78670 144.06075 39004 ft 493 kts 138°
2026-04-23 22:11 -23.83307 144.11598 38997 ft 493 kts 138°
2026-04-23 22:12 -23.87947 144.17130 39003 ft 493 kts 138°
2026-04-23 22:12 -23.92561 144.22639 39003 ft 493 kts 138°
2026-04-23 22:13 -23.97177 144.28157 38997 ft 493 kts 138°
2026-04-23 22:13 -24.01817 144.33709 39005 ft 493 kts 138°
2026-04-23 22:14 -24.06447 144.39256 39002 ft 493 kts 138°
2026-04-23 22:14 -24.11056 144.44784 38998 ft 493 kts 138°
2026-04-23 22:15 -24.15695 144.50354 38998 ft 493 kts 138°
2026-04-23 22:15 -24.20283 144.55869 38996 ft 493 kts 138°
2026-04-23 22:16 -24.24921 144.61451 38997 ft 493 kts 138°
2026-04-23 22:16 -24.29513 144.66984 39000 ft 493 kts 138°
2026-04-23 22:17 -24.34136 144.72561 39002 ft 493 kts 138°
2026-04-23 22:17 -24.38760 144.78146 38995 ft 493 kts 138°
2026-04-23 22:18 -24.43375 144.83726 38997 ft 493 kts 137°
2026-04-23 22:18 -24.47969 144.89288 39008 ft 493 kts 137°
2026-04-23 22:19 -24.52586 144.94883 38999 ft 493 kts 137°
2026-04-23 22:19 -24.57193 145.00474 38995 ft 493 kts 137°
2026-04-23 22:20 -24.61779 145.06045 39003 ft 493 kts 137°
2026-04-23 22:20 -24.66388 145.11652 39003 ft 493 kts 137°
2026-04-23 22:21 -24.70996 145.17264 38999 ft 494 kts 137°
2026-04-23 22:21 -24.75579 145.22851 38997 ft 494 kts 137°
2026-04-23 22:22 -24.80182 145.28471 38998 ft 494 kts 137°
2026-04-23 22:22 -24.84755 145.34059 38994 ft 494 kts 137°
2026-04-23 22:23 -24.89439 145.39595 39004 ft 491 kts 142°
2026-04-23 22:23 -24.94479 145.44644 38992 ft 492 kts 144°
2026-04-23 22:24 -24.99631 145.49652 39000 ft 494 kts 144°
2026-04-23 22:24 -25.04803 145.54664 39004 ft 494 kts 144°
2026-04-23 22:25 -25.09927 145.59657 38996 ft 494 kts 144°
2026-04-23 22:25 -25.15086 145.64702 39002 ft 494 kts 144°
2026-04-23 22:26 -25.20241 145.69750 39003 ft 494 kts 144°
2026-04-23 22:26 -25.25367 145.74778 39004 ft 494 kts 144°
2026-04-23 22:27 -25.30488 145.79804 39003 ft 494 kts 144°
2026-04-23 22:27 -25.35634 145.84861 39002 ft 494 kts 144°
2026-04-23 22:28 -25.40787 145.89931 39004 ft 494 kts 144°
2026-04-23 22:28 -25.45906 145.94972 39000 ft 494 kts 144°
2026-04-23 22:29 -25.51052 146.00047 39003 ft 494 kts 144°
2026-04-23 22:29 -25.56155 146.05086 39005 ft 494 kts 144°
2026-04-23 22:30 -25.61289 146.10161 39004 ft 494 kts 144°
2026-04-23 22:30 -25.66397 146.15216 38998 ft 494 kts 144°
2026-04-23 22:31 -25.71530 146.20302 38997 ft 494 kts 144°
2026-04-23 22:31 -25.76633 146.25365 39003 ft 494 kts 143°
2026-04-23 22:32 -25.81762 146.30459 38997 ft 494 kts 144°
2026-04-23 22:32 -25.86892 146.35560 38999 ft 494 kts 143°
2026-04-23 22:33 -25.91978 146.40625 39003 ft 494 kts 143°
2026-04-23 22:33 -25.97109 146.45739 38996 ft 494 kts 143°
2026-04-23 22:34 -26.02195 146.50816 38996 ft 494 kts 143°
2026-04-23 22:34 -26.07315 146.55932 38997 ft 494 kts 143°
2026-04-23 22:35 -26.12441 146.61062 39003 ft 494 kts 143°
2026-04-23 22:35 -26.17530 146.66160 39002 ft 494 kts 143°
2026-04-23 22:36 -26.22623 146.71268 39005 ft 494 kts 143°
2026-04-23 22:36 -26.27736 146.76403 39001 ft 494 kts 143°
2026-04-23 22:37 -26.32855 146.81549 39005 ft 494 kts 143°
2026-04-23 22:37 -26.37965 146.86693 39005 ft 494 kts 143°
2026-04-23 22:38 -26.43037 146.91806 38994 ft 494 kts 143°
2026-04-23 22:38 -26.48147 146.96964 38997 ft 494 kts 143°
2026-04-23 22:39 -26.53258 147.02129 39004 ft 494 kts 143°
2026-04-23 22:39 -26.58327 147.07257 38999 ft 495 kts 143°
2026-04-23 22:40 -26.63431 147.12427 39000 ft 495 kts 143°
2026-04-23 22:41 -26.71058 147.20165 39003 ft 494 kts 143°
2026-04-23 22:41 -26.76151 147.25341 39003 ft 494 kts 143°
2026-04-23 22:42 -26.81247 147.30527 38999 ft 494 kts 143°
2026-04-23 22:42 -26.86335 147.35711 39006 ft 494 kts 143°
2026-04-23 22:43 -26.91389 147.40867 38997 ft 494 kts 143°
2026-04-23 22:43 -26.96457 147.46043 39002 ft 494 kts 143°
2026-04-23 22:44 -27.01541 147.51243 39002 ft 494 kts 143°
2026-04-23 22:44 -27.06637 147.56461 38996 ft 494 kts 143°
2026-04-23 22:45 -27.11684 147.61637 39004 ft 494 kts 143°
2026-04-23 22:45 -27.16745 147.66831 39005 ft 494 kts 143°
2026-04-23 22:46 -27.21821 147.72049 39001 ft 494 kts 143°
2026-04-23 22:46 -27.26887 147.77264 38999 ft 494 kts 143°
2026-04-23 22:47 -27.31948 147.82480 39002 ft 493 kts 143°
2026-04-23 22:47 -27.36158 147.86824 39003 ft 493 kts 143°
2026-04-23 22:48 -27.42040 147.92903 38999 ft 493 kts 143°
2026-04-23 22:48 -27.47091 147.98129 38996 ft 493 kts 143°
2026-04-23 22:49 -27.52147 148.03366 39002 ft 493 kts 143°
2026-04-23 22:49 -27.57178 148.08584 38996 ft 493 kts 143°
2026-04-23 22:50 -27.61386 148.12955 38995 ft 493 kts 143°
2026-04-23 22:50 -27.67257 148.19060 39006 ft 493 kts 143°
2026-04-23 22:51 -27.71458 148.23435 39001 ft 493 kts 143°
2026-04-23 22:51 -27.76508 148.28700 39003 ft 493 kts 143°
2026-04-23 22:52 -27.81558 148.33972 38995 ft 493 kts 143°
2026-04-23 22:52 -27.86570 148.39211 39007 ft 493 kts 143°
2026-04-23 22:53 -27.91603 148.44479 39003 ft 493 kts 143°
2026-04-23 22:53 -27.96645 148.49763 39004 ft 493 kts 143°
2026-04-23 22:54 -28.01649 148.55015 38994 ft 493 kts 143°
2026-04-23 22:54 -28.06691 148.60297 39013 ft 493 kts 144°
2026-04-23 22:55 -28.11964 148.65240 39004 ft 491 kts 147°
2026-04-23 22:55 -28.17319 148.70004 38995 ft 492 kts 147°
2026-04-23 22:56 -28.22696 148.74856 38997 ft 493 kts 147°
2026-04-23 22:56 -28.28011 148.79733 39002 ft 493 kts 146°
2026-04-23 22:57 -28.33342 148.84658 39002 ft 493 kts 146°
2026-04-23 22:57 -28.38662 148.89581 38998 ft 493 kts 146°
2026-04-23 22:58 -28.43955 148.94483 38997 ft 493 kts 146°
2026-04-23 22:58 -28.49281 148.99418 39005 ft 493 kts 146°
2026-04-23 22:59 -28.54560 149.04316 39000 ft 493 kts 146°
2026-04-23 22:59 -28.59889 149.09268 38995 ft 493 kts 146°
2026-04-23 23:00 -28.65167 149.14178 38998 ft 493 kts 146°
2026-04-23 23:00 -28.70484 149.19133 38999 ft 493 kts 146°
2026-04-23 23:01 -28.75797 149.24089 39005 ft 492 kts 146°
2026-04-23 23:01 -28.81065 149.29011 38999 ft 492 kts 146°
2026-04-23 23:02 -28.86371 149.33975 39005 ft 493 kts 146°
2026-04-23 23:02 -28.91673 149.38943 39000 ft 493 kts 146°
2026-04-23 23:03 -28.96943 149.43891 38997 ft 492 kts 146°
2026-04-23 23:03 -29.02250 149.48875 39005 ft 493 kts 146°
2026-04-23 23:04 -29.07519 149.53829 39005 ft 493 kts 146°
2026-04-23 23:04 -29.12827 149.58828 39002 ft 493 kts 146°
2026-04-23 23:05 -29.18096 149.63798 38999 ft 493 kts 146°
2026-04-23 23:05 -29.23389 149.68797 38997 ft 493 kts 146°
2026-04-23 23:06 -29.28680 149.73801 39002 ft 493 kts 146°
2026-04-23 23:06 -29.33940 149.78784 39005 ft 493 kts 146°
2026-04-23 23:07 -29.39243 149.83814 39000 ft 493 kts 146°
2026-04-23 23:07 -29.44500 149.88807 38997 ft 493 kts 146°
2026-04-23 23:08 -29.49793 149.93842 38999 ft 493 kts 146°
2026-04-23 23:08 -29.55047 149.98845 39005 ft 493 kts 146°
2026-04-23 23:08 -29.57674 150.01353 39405 ft 484 kts 149°
2026-04-23 23:09 -29.60254 150.03803 39430 ft 476 kts 149°
2026-04-23 23:09 -29.65471 150.08209 39444 ft 459 kts 159°
2026-04-23 23:10 -29.71327 150.10883 39426 ft 451 kts 171°
2026-04-23 23:10 -29.77422 150.12749 39430 ft 454 kts 173°
2026-04-23 23:11 -29.83558 150.14485 39432 ft 458 kts 173°
2026-04-23 23:11 -29.89764 150.16288 39494 ft 459 kts 173°
2026-04-23 23:12 -29.95922 150.18125 39602 ft 459 kts 173°
2026-04-23 23:12 -30.01654 150.19851 39715 ft 459 kts 173°
2026-04-23 23:13 -30.07841 150.21723 39835 ft 459 kts 173°
2026-04-23 23:13 -30.13977 150.23580 39955 ft 459 kts 173°
2026-04-23 23:14 -30.20165 150.25454 40067 ft 458 kts 172°
2026-04-23 23:14 -30.26359 150.27329 40122 ft 460 kts 173°
2026-04-23 23:14 -30.29417 150.28250 39907 ft 459 kts 172°
2026-04-23 23:15 -30.32508 150.29185 39682 ft 458 kts 172°
2026-04-23 23:15 -30.35601 150.30122 39501 ft 457 kts 172°
2026-04-23 23:15 -30.38682 150.31057 39456 ft 458 kts 172°
2026-04-23 23:16 -30.44871 150.32929 39460 ft 458 kts 172°
2026-04-23 23:16 -30.51002 150.34783 39462 ft 459 kts 172°
2026-04-23 23:17 -30.57196 150.36665 39465 ft 459 kts 172°
2026-04-23 23:17 -30.63349 150.38540 39470 ft 459 kts 172°
2026-04-23 23:18 -30.69548 150.40429 39471 ft 459 kts 172°
2026-04-23 23:18 -30.75730 150.42314 39473 ft 459 kts 172°
2026-04-23 23:19 -30.81884 150.44195 39474 ft 459 kts 172°
2026-04-23 23:19 -30.88057 150.46095 39478 ft 459 kts 172°
2026-04-23 23:20 -30.94241 150.47991 39479 ft 459 kts 172°
2026-04-23 23:20 -31.00391 150.49875 39482 ft 459 kts 172°
2026-04-23 23:21 -31.06553 150.51769 39478 ft 449 kts 172°
2026-04-23 23:21 -31.12575 150.53646 39480 ft 451 kts 172°
2026-04-23 23:22 -31.18678 150.55529 39479 ft 455 kts 172°
2026-04-23 23:22 -31.24821 150.57409 39479 ft 458 kts 172°
2026-04-23 23:23 -31.31005 150.59306 39479 ft 459 kts 172°
2026-04-23 23:23 -31.37183 150.61219 39477 ft 458 kts 172°
2026-04-23 23:24 -31.43324 150.63127 39478 ft 458 kts 172°
2026-04-23 23:24 -31.49498 150.65044 39479 ft 458 kts 172°
2026-04-23 23:25 -31.55673 150.66959 39476 ft 458 kts 172°
2026-04-23 23:25 -31.61848 150.68879 39481 ft 459 kts 171°
2026-04-23 23:26 -31.67994 150.70795 39486 ft 459 kts 171°
2026-04-23 23:26 -31.74185 150.72728 39486 ft 459 kts 171°
2026-04-23 23:27 -31.80334 150.74649 39491 ft 459 kts 171°
2026-04-23 23:27 -31.86524 150.76585 39482 ft 459 kts 171°
2026-04-23 23:27 -31.89608 150.77546 39285 ft 459 kts 171°
2026-04-23 23:28 -31.92693 150.78511 39036 ft 458 kts 171°
2026-04-23 23:28 -31.95737 150.79461 38766 ft 458 kts 171°
2026-04-23 23:28 -31.98824 150.80424 38492 ft 459 kts 171°
2026-04-23 23:28 -32.01912 150.81385 38216 ft 458 kts 171°
2026-04-23 23:29 -32.05023 150.82143 37574 ft 451 kts 175°
2026-04-23 23:29 -32.08111 150.82733 36869 ft 446 kts 176°
2026-04-23 23:29 -32.11170 150.83279 36168 ft 442 kts 176°
2026-04-23 23:29 -32.14172 150.83793 35443 ft 438 kts 176°
2026-04-23 23:30 -32.17197 150.84299 34655 ft 437 kts 176°
2026-04-23 23:30 -32.20208 150.84799 33766 ft 435 kts 176°
2026-04-23 23:30 -32.23206 150.85299 32931 ft 433 kts 175°
2026-04-23 23:30 -32.26193 150.85803 32091 ft 435 kts 175°
2026-04-23 23:31 -32.29172 150.86314 31225 ft 438 kts 174°
2026-04-23 23:31 -32.32199 150.86845 30290 ft 441 kts 173°
2026-04-23 23:31 -32.35242 150.87397 29376 ft 440 kts 173°
2026-04-23 23:31 -32.38261 150.87957 28754 ft 436 kts 173°
2026-04-23 23:32 -32.41204 150.88496 28130 ft 432 kts 173°
2026-04-23 23:32 -32.44173 150.89032 27482 ft 428 kts 173°
2026-04-23 23:32 -32.47109 150.89558 26840 ft 425 kts 173°
2026-04-23 23:32 -32.50024 150.90077 26206 ft 422 kts 173°
2026-04-23 23:33 -32.52914 150.90595 25558 ft 418 kts 173°
2026-04-23 23:33 -32.55792 150.91108 24925 ft 415 kts 173°
2026-04-23 23:33 -32.58642 150.91613 24305 ft 412 kts 173°
2026-04-23 23:33 -32.61438 150.92108 23625 ft 409 kts 173°
2026-04-23 23:34 -32.64245 150.92610 22994 ft 405 kts 173°
2026-04-23 23:34 -32.67019 150.93104 22383 ft 402 kts 173°
2026-04-23 23:34 -32.69781 150.93595 21762 ft 399 kts 173°
2026-04-23 23:34 -32.72521 150.94084 21143 ft 396 kts 173°
2026-04-23 23:35 -32.75231 150.94566 20537 ft 393 kts 173°
2026-04-23 23:35 -32.77929 150.95048 19912 ft 390 kts 173°
2026-04-23 23:35 -32.80561 150.95546 19283 ft 387 kts 171°
2026-04-23 23:35 -32.83198 150.96177 18639 ft 384 kts 170°
2026-04-23 23:36 -32.85813 150.96781 17974 ft 380 kts 171°
2026-04-23 23:36 -32.88414 150.97327 17338 ft 377 kts 172°
2026-04-23 23:36 -32.91005 150.97836 16702 ft 374 kts 173°
2026-04-23 23:36 -32.93548 150.98316 16094 ft 371 kts 173°
2026-04-23 23:37 -32.96095 150.98787 15463 ft 369 kts 173°
2026-04-23 23:37 -32.98625 150.99247 14842 ft 367 kts 174°
2026-04-23 23:37 -33.00295 150.99549 14428 ft 365 kts 174°
2026-04-23 23:37 -33.02805 151.00002 13752 ft 362 kts 174°
2026-04-23 23:38 -33.05293 151.00449 13116 ft 359 kts 174°
2026-04-23 23:38 -33.07762 151.00891 12497 ft 357 kts 174°
2026-04-23 23:38 -33.10217 151.01331 11876 ft 355 kts 174°
2026-04-23 23:38 -33.12591 151.01766 11599 ft 341 kts 174°
2026-04-23 23:39 -33.14871 151.02169 11397 ft 321 kts 175°
2026-04-23 23:39 -33.16982 151.02533 11017 ft 290 kts 175°
2026-04-23 23:39 -33.18884 151.02892 10840 ft 267 kts 174°
2026-04-23 23:39 -33.20706 151.03248 10700 ft 265 kts 174°
2026-04-23 23:40 -33.22528 151.03594 10583 ft 265 kts 175°
2026-04-23 23:40 -33.24350 151.03933 10453 ft 264 kts 175°
2026-04-23 23:40 -33.26146 151.04278 10322 ft 264 kts 174°
2026-04-23 23:40 -33.27962 151.04629 10026 ft 263 kts 174°
2026-04-23 23:41 -33.29814 151.04985 9811 ft 278 kts 174°
2026-04-23 23:41 -33.31747 151.05339 9673 ft 280 kts 175°
2026-04-23 23:41 -33.33666 151.05687 9158 ft 279 kts 174°
2026-04-23 23:41 -33.35570 151.06048 8768 ft 280 kts 174°
2026-04-23 23:42 -33.37498 151.06412 8440 ft 280 kts 174°
2026-04-23 23:42 -33.39424 151.06775 8114 ft 280 kts 174°
2026-04-23 23:42 -33.41352 151.07141 7799 ft 279 kts 173°
2026-04-23 23:42 -33.43273 151.07507 7471 ft 279 kts 173°
2026-04-23 23:43 -33.45186 151.07874 7164 ft 278 kts 173°
2026-04-23 23:43 -33.47095 151.08240 6838 ft 278 kts 173°
2026-04-23 23:43 -33.48972 151.08600 6514 ft 276 kts 173°
2026-04-23 23:43 -33.50878 151.08966 6193 ft 274 kts 173°
2026-04-23 23:44 -33.52760 151.09329 5884 ft 272 kts 174°
2026-04-23 23:44 -33.54631 151.09688 5563 ft 271 kts 174°
2026-04-23 23:44 -33.56461 151.10041 5254 ft 269 kts 174°
2026-04-23 23:44 -33.58306 151.10396 4937 ft 267 kts 174°
2026-04-23 23:45 -33.60137 151.10748 4632 ft 265 kts 174°
2026-04-23 23:45 -33.61959 151.11099 4316 ft 263 kts 174°
2026-04-23 23:45 -33.63720 151.11454 4179 ft 248 kts 173°
2026-04-23 23:45 -33.65356 151.11797 4062 ft 233 kts 173°
2026-04-23 23:46 -33.66905 151.12137 3938 ft 220 kts 173°
2026-04-23 23:46 -33.68371 151.12450 3837 ft 208 kts 174°
2026-04-23 23:46 -33.69772 151.12630 3757 ft 193 kts 180°
2026-04-23 23:46 -33.71098 151.12637 3638 ft 190 kts 186°
2026-04-23 23:47 -33.72399 151.12478 3538 ft 191 kts 191°
2026-04-23 23:47 -33.73717 151.12299 3327 ft 192 kts 184°
2026-04-23 23:47 -33.75056 151.12447 3171 ft 191 kts 174°
2026-04-23 23:47 -33.76339 151.12780 3029 ft 186 kts 172°
2026-04-23 23:48 -33.77593 151.13116 2995 ft 186 kts 162°
2026-04-23 23:48 -33.78835 151.13500 2860 ft 178 kts 163°
2026-04-23 23:48 -33.80002 151.13824 2652 ft 167 kts 165°
2026-04-23 23:48 -33.81104 151.13988 2525 ft 152 kts 174°
2026-04-23 23:49 -33.83125 151.14455 1986 ft 139 kts 156°
2026-04-23 23:49 -33.84051 151.14825 1812 ft 145 kts 164°
2026-04-23 23:49 -33.85049 151.15095 1621 ft 149 kts 167°
2026-04-23 23:50 -33.86050 151.15357 1415 ft 143 kts 167°
2026-04-23 23:50 -33.86985 151.15601 1245 ft 132 kts 167°
2026-04-23 23:50 -33.87867 151.15835 1061 ft 128 kts 167°
2026-04-23 23:50 -33.88727 151.16064 902 ft 126 kts 168°
2026-04-23 23:51 -33.89578 151.16285 725 ft 126 kts 168°
2026-04-23 23:51 -33.90440 151.16508 572 ft 127 kts 167°
2026-04-23 23:51 -33.91299 151.16732 389 ft 126 kts 167°
2026-04-23 23:51 -33.92178 151.16962 210 ft 128 kts 166°
2026-04-23 23:52 -33.93029 151.17181 68 ft 120 kts 167°
2026-04-23 23:52 -33.93786 151.17378 33 ft 102 kts 168°
2026-04-23 23:52 -33.94380 151.17531 36 ft 74 kts 168°
2026-04-23 23:52 -33.94776 151.17631 35 ft 23 kts 170°
2026-04-23 23:53 -33.94930 151.17646 34 ft 34 kts 180°
2026-04-23 23:53 -33.95107 151.17614 35 ft 8 kts 210°
2026-04-23 23:53 -33.95131 151.17560 35 ft 7 kts 270°
2026-04-23 23:53 -33.95095 151.17518 36 ft 10 kts 333°
2026-04-23 23:54 -33.94978 151.17487 36 ft 24 kts 349°
2026-04-23 23:54 -33.94779 151.17441 36 ft 32 kts 349°
2026-04-23 23:54 -33.94563 151.17375 37 ft 33 kts 344°
2026-04-23 23:54 -33.94346 151.17324 36 ft 27 kts 348°
2026-04-23 23:55 -33.94156 151.17274 34 ft 27 kts 348°
2026-04-23 23:55 -33.94078 151.17162 36 ft 19 kts 261°
2026-04-23 23:55 -33.94117 151.16995 35 ft 22 kts 253°
2026-04-23 23:55 -33.94122 151.16849 36 ft 13 kts 314°
2026-04-23 23:56 -33.94028 151.16808 36 ft 16 kts 344°
2026-04-23 23:56 -33.93968 151.16819 36 ft 6 kts 64°
2026-04-23 23:56 -33.93961 151.16853 36 ft 0 kts 76°
2026-04-23 23:57 -33.93956 151.16872 36 ft 9 kts 75°
2026-04-23 23:57 -33.93953 151.16886 36 ft 0 kts 74°
2026-04-23 23:57 -33.93953 151.16888 36 ft 0 kts 74°